EW7070 Weather Reports


time (UTC)temp
F
wind
direction
speed
knots
gust
knots
rain 1hr
in
rain 24hr
in
rain mn
in
humidity
%
barometer
mb
20260502130733 69 310 0.9 2.6 0.00 2.42 0.59 96 1016.9
20260502130231 69 293 1.7 3.5 0.00 2.42 0.59 96 1016.5
20260502123330 69 212 0.9 2.6 0.00 2.42 0.59 96 1016.5
20260502122806 69 322 0.9 2.6 0.00 2.42 0.59 96 1016.4
20260502122529 69 305 0.9 5.2 0.00 2.42 0.59 96 1016.4
20260502121752 69 223 1.7 6.1 0.00 2.42 0.59 97 1016.1
20260502121249 69 258 1.7 5.2 0.00 2.42 0.59 97 1015.8
20260502120953 69 272 1.7 6.1 0.00 2.42 0.59 97 1015.7
20260502120213 69 312 1.7 6.1 0.00 2.42 0.59 97 1015.6
20260502115713 68 280 1.7 5.2 0.00 2.42 0.59 97 1015.6
20260502115145 68 280 2.6 6.1 0.00 2.42 0.59 97 1015.4
20260502114629 68 287 2.6 6.1 0.00 2.42 0.59 96 1015.1
20260502114116 68 294 2.6 6.1 0.00 2.42 0.59 96 1015.2
20260502113550 68 293 2.6 6.1 0.00 2.42 0.59 96 1015.4
20260502113037 68 272 1.7 7.0 0.00 2.42 0.59 96 1015.1
20260502112525 68 280 1.7 7.0 0.00 2.42 0.59 96 1014.9
20260502111958 68 289 2.6 7.0 0.00 2.42 0.59 96 1014.6
20260502111714 68 266 2.6 7.0 0.00 2.42 0.59 96 1014.6
20260502110932 68 271 2.6 5.2 0.00 2.42 0.59 96 1014.3
20260502110430 68 276 2.6 6.1 0.00 2.42 0.59 96 1014.1
20260502110157 68 274 1.7 6.1 0.00 2.42 0.59 96 1014.0
20260502105423 68 308 1.7 5.2 0.00 2.42 0.59 96 1013.7
20260502104923 68 287 0.9 4.3 0.00 2.42 0.59 96 1013.5
20260502104420 68 303 0.9 2.6 0.00 2.42 0.59 95 1013.3
20260502103907 68 303 0.9 2.6 0.00 2.42 0.59 95 1013.2
20260502103357 68 318 1.7 3.5 0.00 2.42 0.59 95 1013.1
20260502102855 68 318 2.6 5.2 0.00 2.42 0.59 95 1013.1
20260502102350 68 289 2.6 5.2 0.00 2.42 0.59 95 1013.0
20260502102120 68 326 1.7 3.5 0.00 2.42 0.59 95 1012.9
20260502101347 68 322 1.7 3.5 0.00 2.42 0.59 94 1012.5
20260502100820 68 290 2.6 5.2 0.00 2.42 0.59 94 1012.5
20260502100320 68 288 2.6 5.2 0.00 2.42 0.59 94 1012.3
20260502091416 69 290 4.3 10.4 0.00 2.42 0.59 93 1011.3
20260502090611 69 282 4.3 10.4 0.00 2.42 0.59 93 1011.4
20260502071208 67 24 0.9 5.2 0.01 2.42 0.59 98 1009.8
20260502070705 67 285 1.7 5.2 0.01 2.42 0.59 98 1009.9
20260502070143 67 289 2.6 6.1 0.01 2.42 0.59 98 1010.1
20260502065644 67 275 1.7 6.1 0.01 2.42 0.59 98 1010.2
20260502065146 67 304 2.6 4.3 0.01 2.42 0.59 98 1010.1
20260502065139 67 263 1.7 5.2 0.01 2.42 0.59 98 1010.2
20260502064356 67 307 4.3 7.8 0.02 2.42 0.59 98 1010.1
20260502063559 67 291 4.3 7.8 0.04 2.42 0.59 98 1010.2
20260502063100 67 284 3.5 7.8 0.04 2.42 0.59 98 1010.0
20260502062558 67 270 4.3 7.8 0.05 2.42 0.59 98 1010.2
20260502062059 67 262 3.5 7.8 0.07 2.42 0.59 98 1010.1
20260502061814 68 275 2.6 7.0 0.09 2.42 0.59 98 1010.1
20260502061044 68 187 4.3 9.6 0.09 2.41 0.58 98 1009.9
20260502060543 68 266 3.5 9.6 0.11 2.41 0.58 98 1010.2
20260502060041 68 247 2.6 6.1 0.14 2.41 0.58 98 1009.3
20260502055513 68 106 4.3 11.3 0.17 2.41 0.58 98 1008.0
20260502055011 68 187 4.3 11.3 0.19 2.41 0.58 98 1009.0
20260502054509 67 335 3.5 9.6 0.21 2.40 0.57 99 1008.3
20260502054005 67 101 2.6 8.7 0.22 2.39 0.56 98 1009.7
20260502053501 67 334 1.7 5.2 0.23 2.38 0.55 98 1010.1
20260502052959 67 287 1.7 3.5 0.26 2.38 0.55 98 1010.4
20260502052459 67 33 2.6 4.3 0.26 2.37 0.54 98 1010.0
20260502051957 67 38 2.6 7.0 0.26 2.35 0.52 98 1010.9
20260502051455 67 256 1.7 6.1 0.26 2.33 0.50 98 1011.6
20260502050950 67 210 1.7 5.2 0.27 2.31 0.48 98 1011.0
20260502050427 67 177 2.6 7.0 0.26 2.29 0.46 98 1011.5
20260502045917 67 270 4.3 8.7 0.25 2.27 0.44 98 1011.7
20260502045417 67 285 3.5 8.7 0.24 2.24 0.41 98 1011.7
20260502044913 67 305 2.6 6.1 0.23 2.21 0.39 98 1011.7
20260502044409 67 302 3.5 6.1 0.23 2.19 0.36 98 1011.8
20260502043909 67 277 2.6 6.1 0.22 2.16 0.34 98 1012.0
20260502043407 66 359 1.7 5.2 0.23 2.14 0.31 98 1011.8
20260502042839 66 332 1.7 5.2 0.23 2.12 0.29 98 1011.6
20260502042338 66 3 0.9 5.2 0.23 2.10 0.27 98 1011.5
20260502041826 66 343 0.0 0.0 0.22 2.08 0.25 98 1011.6
20260502041559 66 343 0.0 0.0 0.21 2.06 0.23 98 1011.5
20260502040801 66 103 0.0 1.7 0.20 2.04 0.21 98 1011.6
20260502040254 66 89 0.9 5.2 0.18 2.02 0.19 98 1011.5
20260502035758 66 64 0.9 5.2 0.18 2.01 0.18 98 1011.9
20260502035238 66 56 0.0 2.6 0.17 1.99 0.17 98 1012.2
20260502035002 66 151 0.0 1.7 0.18 1.98 0.15 98 1012.7
20260502034229 66 151 0.9 5.2 0.20 1.96 0.13 98 1012.7
20260502033728 66 168 2.6 7.0 0.18 1.92 0.10 98 1012.4
20260502033224 66 243 2.6 7.0 0.18 1.91 0.08 98 1012.7
20260502032724 66 260 4.3 9.6 0.16 1.88 0.05 98 1012.4
20260502032204 66 245 3.5 9.6 0.15 1.86 0.03 98 1012.5
20260502031707 66 242 2.6 5.2 0.15 1.85 0.02 98 1012.0
20260502031204 66 230 2.6 5.2 0.17 1.85 0.02 98 1011.3
20260502030945 66 272 1.7 4.3 0.18 1.84 0.01 98 1011.4
20260502030422 66 341 1.7 7.0 0.18 1.83 0.01 98 1011.2
20260502025639 66 334 1.7 7.0 0.18 1.83 1.83 98 1011.1
20260502025139 66 6 0.9 3.5 0.17 1.81 1.81 97 1011.1
20260502024857 66 97 0.9 3.5 0.17 1.80 1.80 97 1011.4
20260502024127 66 119 0.9 3.5 0.13 1.75 1.75 97 1011.6
20260502023835 66 141 1.7 4.3 0.12 1.74 1.74 97 1011.4
20260502023108 66 131 1.7 5.2 0.12 1.73 1.73 97 1011.3
20260502022829 66 116 0.9 3.5 0.12 1.72 1.72 97 1011.7
20260502022045 66 97 0.9 5.2 0.13 1.71 1.71 97 1011.8
20260502021542 66 133 0.9 5.2 0.15 1.69 1.69 97 1011.7
20260502021042 66 148 0.9 3.5 0.16 1.68 1.68 97 1011.7
20260502020541 66 111 0.9 6.1 0.19 1.66 1.66 97 1012.2
20260502020033 66 64 1.7 6.1 0.30 1.65 1.65 97 1012.1
20260502015504 66 85 1.7 5.2 0.49 1.65 1.65 97 1012.3
20260502015211 66 76 3.5 9.6 0.68 1.64 1.64 96 1012.9
20260502014441 66 54 6.1 9.6 0.75 1.63 1.63 96 1012.7
20260502013915 66 112 6.1 12.2 0.81 1.62 1.62 96 1012.7
20260502013644 66 79 7.0 12.2 0.95 1.62 1.62 97 1012.8
20260502012906 66 72 8.7 14.8 1.09 1.61 1.61 97 1012.2
20260502012402 66 91 8.7 14.8 1.17 1.60 1.60 97 1012.4
20260502011856 66 107 7.8 16.5 1.20 1.56 1.57 97 1012.5
20260502011354 66 81 8.7 16.5 1.26 1.54 1.54 97 1012.7
20260502011123 66 88 9.6 15.6 1.38 1.49 1.50 97 1012.4
20260502010320 66 99 7.8 15.6 1.32 1.43 1.43 97 1012.9
20260502005811 66 112 4.3 13.0 1.14 1.25 1.28 97 1014.0
20260502005310 66 119 2.6 7.8 1.00 1.11 1.11 96 1015.0
20260502004801 66 66 2.6 8.7 0.83 0.93 0.93 96 1015.1
20260502004526 66 122 2.6 10.4 0.77 0.87 0.87 96 1014.2
20260502003755 67 164 3.5 10.4 0.69 0.79 0.80 96 1013.6
20260502003524 67 75 3.5 9.6 0.54 0.64 0.66 95 1013.6
20260502002751 67 245 4.3 13.9 0.40 0.50 0.50 95 1014.1
20260502002531 67 284 6.1 17.4 0.25 0.35 0.35 94 1013.3
20260502002252 67 237 4.3 17.4 0.30 0.40 0.42 94 1014.0
20260502001250 68 148 8.7 20.9 0.16 0.26 0.26 93 1011.9
20260502000749 68 260 7.0 20.9 0.01 0.11 0.11 92 1014.0
20260502000243 68 276 7.0 19.1 0.01 0.11 0.11 92 1011.6
20260501235742 68 107 7.0 19.1 0.01 0.11 0.11 92 1009.8
20260501235211 68 91 5.2 13.0 0.01 0.11 0.11 91 1010.7
20260501234644 68 149 5.2 13.0 0.00 0.10 0.10 91 1012.0
20260501234413 69 214 3.5 12.2 0.00 0.10 0.10 91 1012.8
20260501233616 69 243 2.6 11.3 0.00 0.10 0.10 90 1011.5
20260501233041 68 73 3.5 11.3 0.00 0.10 0.10 90 1011.2
20260501232518 68 128 2.6 12.2 0.00 0.10 0.10 91 1010.7
20260501232009 68 122 5.2 12.2 0.00 0.10 0.10 91 1010.9
20260501231738 68 103 6.1 12.2 0.00 0.10 0.10 91 1010.6
20260501230941 68 78 7.0 13.0 0.00 0.10 0.10 92 1010.9
20260501230647 68 83 6.1 13.0 0.00 0.10 0.10 92 1011.0
20260501225915 68 70 5.2 8.7 0.00 0.10 0.10 92 1011.4
20260501225415 68 118 7.0 15.6 0.00 0.10 0.10 92 1011.6
20260501224919 67 99 7.0 13.9 0.00 0.10 0.10 92 1011.5
20260501224912 68 128 8.7 15.6 0.00 0.10 0.10 92 1011.7
20260501224522 67 108 7.0 13.0 0.00 0.10 0.10 92 1011.7
20260501223359 67 114 7.0 12.2 0.00 0.10 0.10 93 1011.8
20260501222850 67 90 7.8 14.8 0.00 0.10 0.10 93 1011.9
20260501222617 67 107 7.0 14.8 0.00 0.10 0.10 93 1011.9
20260501222051 67 98 5.2 10.4 0.00 0.10 0.10 94 1012.1
20260501221316 67 109 5.2 10.4 0.00 0.10 0.10 94 1012.3
20260501220807 66 123 5.2 8.7 0.00 0.10 0.10 94 1012.5
20260501220525 66 84 6.1 13.0 0.00 0.10 0.10 95 1012.5
20260501220401 66 158 5.2 9.6 0.00 0.10 0.10 95 1012.5
20260501215252 66 99 5.2 13.0 0.00 0.10 0.10 95 1012.8
20260501214737 66 110 2.6 7.0 0.00 0.10 0.10 95 1013.1
20260501214238 66 97 1.7 5.2 0.00 0.10 0.10 95 1013.3
20260501213737 66 126 1.7 3.5 0.00 0.10 0.10 95 1013.6
20260501213514 66 30 2.6 4.3 0.01 0.10 0.10 95 1014.2
20260501213235 66 121 1.7 4.3 0.00 0.10 0.10 95 1013.9
20260501212225 66 255 2.6 4.3 0.01 0.10 0.10 95 1014.2
20260501211658 67 235 1.7 2.6 0.02 0.10 0.10 95 1013.8
20260501211651 67 243 2.6 8.7 0.03 0.10 0.10 94 1013.4
20260501210644 67 92 5.2 8.7 0.06 0.10 0.10 94 1013.0
20260501210147 67 96 4.3 8.7 0.09 0.10 0.10 94 1012.8
20260501205617 67 88 4.3 7.0 0.10 0.10 0.10 94 1013.3
20260501205053 67 111 5.2 8.7 0.10 0.10 0.10 94 1013.0
20260501204548 67 100 5.2 9.6 0.10 0.10 0.10 94 1013.2
20260501204316 67 91 6.1 10.4 0.10 0.10 0.10 93 1013.2
20260501203544 67 102 5.2 10.4 0.10 0.10 0.10 93 1013.2
20260501203026 67 121 4.3 8.7 0.09 0.09 0.09 92 1013.5
20260501202507 68 125 3.5 8.7 0.09 0.09 0.09 92 1013.6
20260501202007 68 129 2.6 7.0 0.09 0.09 0.09 91 1014.0
20260501201459 68 182 2.6 7.0 0.08 0.08 0.08 90 1014.8
20260501201001 69 139 1.7 5.2 0.06 0.06 0.07 89 1014.3
20260501200435 69 215 1.7 5.2 0.03 0.03 0.03 87 1013.7
20260501195911 70 141 2.6 5.2 0.00 0.00 0.00 86 1012.9
20260501195405 70 87 2.6 9.6 0.00 0.00 0.00 85 1013.0
20260501195138 70 108 3.5 9.6 0.00 0.00 0.00 85 1012.8
20260501194616 71 123 3.5 7.8 0.00 0.00 0.00 83 1012.7
20260501193836 71 113 3.5 8.7 0.00 0.00 0.00 83 1012.4
20260501193336 71 111 1.7 8.7 0.00 0.00 0.00 82 1012.7
20260501192808 72 126 1.7 8.7 0.00 0.00 0.00 81 1012.8
20260501192305 72 122 1.7 8.7 0.00 0.00 0.00 81 1012.8
20260501191734 73 289 1.7 5.2 0.00 0.00 0.00 81 1013.1
20260501191206 73 274 2.6 7.0 0.00 0.00 0.00 80 1012.7
20260501190706 74 316 3.5 10.4 0.00 0.00 0.00 79 1011.9
20260501190159 74 95 4.3 13.0 0.00 0.00 0.00 78 1011.4
20260501185635 76 247 3.5 13.0 0.00 0.00 0.00 75 1011.2
20260501185132 77 216 2.6 13.9 0.00 0.00 0.00 73 1011.1
20260501184630 79 280 3.5 13.9 0.00 0.00 0.00 72 1010.5
20260501184130 80 275 4.3 13.9 0.00 0.00 0.00 69 1010.6
20260501183623 83 91 4.3 13.9 0.00 0.00 0.00 67 1010.7
20260501183122 84 249 2.6 5.2 0.00 0.00 0.00 67 1010.0
20260501182555 85 256 1.7 3.5 0.00 0.00 0.00 65 1009.5
20260501182043 85 236 0.9 3.5 0.00 0.00 0.00 63 1009.3
20260501181813 85 275 0.0 2.6 0.00 0.00 0.00 63 1009.2
20260501181042 85 352 0.9 1.7 0.00 0.00 0.00 62 1009.1
20260501180523 85 352 0.9 6.1 0.00 0.00 0.00 63 1009.0
20260501175954 85 74 0.9 4.3 0.00 0.00 0.00 63 1008.9
20260501175456 85 36 1.7 4.3 0.00 0.00 0.00 63 1008.8
20260501174919 85 302 1.7 5.2 0.00 0.00 0.00 61 1009.0
20260501174419 85 322 2.6 7.0 0.00 0.00 0.00 62 1009.1
20260501173850 85 24 1.7 7.0 0.00 0.00 0.00 62 1009.2
20260501173329 85 25 1.7 5.2 0.00 0.00 0.00 60 1009.2
20260501172827 85 85 1.7 5.2 0.00 0.00 0.00 60 1009.3
20260501172323 85 349 1.7 6.1 0.00 0.00 0.00 61 1009.5
20260501172053 85 58 1.7 6.1 0.00 0.00 0.00 61 1009.6
20260501171552 85 357 1.7 6.1 0.00 0.00 0.00 59 1009.8
20260501171023 85 35 1.7 6.1 0.00 0.00 0.00 59 1009.9
20260501170244 85 32 1.7 4.3 0.00 0.00 0.00 60 1010.0
20260501165745 85 8 1.7 7.0 0.00 0.00 0.00 60 1009.9
20260501165217 85 33 1.7 6.1 0.00 0.00 0.00 63 1010.1
20260501164707 84 335 1.7 6.1 0.00 0.00 0.00 60 1010.3
20260501164141 84 107 0.9 6.1 0.00 0.00 0.00 63 1010.5
20260501163634 83 27 0.9 6.1 0.00 0.00 0.00 63 1010.7
20260501163103 83 234 0.9 2.6 0.00 0.00 0.00 63 1010.7
20260501162808 83 243 0.9 2.6 0.00 0.00 0.00 63 1010.9
20260501162310 82 247 0.0 2.6 0.00 0.00 0.00 61 1011.1
20260501161527 82 226 0.0 2.6 0.00 0.00 0.00 66 1011.2
20260501161024 82 177 0.9 2.6 0.00 0.00 0.00 64 1011.5
20260501160458 82 260 0.9 2.6 0.00 0.00 0.00 64 1011.6
20260501155946 82 229 0.9 2.6 0.00 0.00 0.00 63 1011.7
20260501155444 81 242 0.9 3.5 0.00 0.00 0.00 63 1011.7
20260501154915 81 264 0.9 3.5 0.00 0.00 0.00 64 1011.7
20260501154619 81 319 0.9 10.4 0.00 0.00 0.00 63 1011.9
20260501153844 81 289 1.7 10.4 0.00 0.00 0.00 63 1012.3
20260501153821 81 33 3.5 12.2 0.00 0.00 0.00 65 1012.1
20260501152747 81 85 1.7 12.2 0.00 0.00 0.00 63 1012.4
20260501152513 81 29 2.6 7.8 0.00 0.00 0.00 64 1012.5
20260501151714 81 358 3.5 9.6 0.00 0.00 0.00 63 1012.8
20260501151438 81 12 3.5 10.4 0.00 0.00 0.00 61 1012.9
20260501150703 81 328 3.5 10.4 0.00 0.00 0.00 62 1013.0
20260501150159 81 90 2.6 8.7 0.00 0.00 0.00 62 1013.2
20260501145930 81 213 2.6 7.0 0.00 0.00 0.00 61 1013.5
20260501145143 81 79 1.7 7.0 0.00 0.00 0.00 62 1013.4
20260501144912 80 77 2.6 10.4 0.00 0.00 0.00 62 1013.5
20260501144138 80 31 3.5 10.4 0.00 0.00 0.00 61 1013.7